Location: Ku?niki
(51.4449°N, 17.8974°E)
Time: 01:34:13
(UTC+00:00)

VELOX 1 - Pass Details

Date: 07 July 2022
Orbit: 624 x 639 km, 98.4° (Epoch: 07 August)

Event Time Altitude Azimuth Distance (km) Brightness Sun altitude
Rises 01:41:10 0° 118° (ESE) 2,934 ? -7.3°
Reaches altitude 10° 01:43:55 10° 100° (E) 2,032 ? -7.0°
Maximum altitude 01:46:54 18° 57° (ENE) 1,567 ? -6.8°
Drops below altitude 10° 01:49:55 10° 14° (NNE) 2,044 ? -6.5°
Sets 01:52:41 0° 356° (N) 2,959 ? -6.2°
